Temp
-7 -7 -7 -7 -7 -7 -7 -7 -8 -8 -7 -8 -8 -8 -8 -8 -7 -7 -7 -7 -7 -7 -7 -7 -7 -7 -7 -6 -5 -5 -7 -6 -5 -5 -5 -4 -4 -3 -5 -4 -4 -4 -4 -3 -3
-7 -7 -7 -7 -7 -7 -7 -7 -7 -7 -7 -7 -8 -8 -8 -8 -8 -7 -8 -7 -7 -7 -7 -7 -8 -7 -6 -5 -6 -6 -7 -6 -5 -6 -6 -6 -4 -4 -3 -4 -4 -4 -4 -3 -3
-7 -7 -7 -7 -7 -7 -7 -7 -7 -7 -7 -7 -7 -8 -8 -8 -8 -7 -7 -8 -7 -7 -7 -8 -7 -7 -7 -7 -7 -7 -8 -6 -6 -5 -6 -3 -4 -4 -3 -3 -3 -4 -4 -4 -4
-7 -7 -7 -7 -7 -7 -7 -7 -7 -7 -7 -7 -7 -8 -8 -8 -7 -7 -7 -7 -8 -7 -8 -8 -8 -7 -6 -8 -8 -7 -8 -6 -7 -6 -7 -6 -5 -4 -5 -5 -4 -4 -4 -4 -4
-7 -7 -7 -7 -7 -7 -7 -7 -7 -7 -7 -7 -7 -7 -7 -7 -8 -7 -7 -7 -7 -8 -7 -8 -8 -7 -6 -8 -8 -7 -7 -7 -8 -7 -7 -6 -6 -4 -4 -5 -4 -4 -4 -4 -4
-6 -7 -7 -7 -7 -7 -7 -7 -7 -7 -7 -7 -7 -7 -7 -6 -8 -7 -7 -8 -7 -8 -7 -8 -7 -7 -7 -7 -8 -8 -7 -6 -6 -8 -6 -5 -3 -3 -4 -3 -3 -3 -4 -4 -4
-6 -6 -6 -6 -7 -7 -7 -7 -8 -7 -7 -7 -7 -7 -6 -7 -7 -7 -6 -8 -7 -8 -8 -7 -7 -7 -7 -6 -5 -7 -7 -7 -7 -7 -6 -6 -5 -4 -4 -3 -3 -4 -4 -4 -4
-7 -6 -6 -6 -6 -6 -7 -7 -7 -8 -7 -7 -7 -6 -6 -8 -7 -6 -7 -8 -8 -8 -8 -8 -7 -7 -7 -7 -7 -7 -7 -7 -6 -6 -6 -6 -4 -6 -4 -4 -3 -4 -4 -4 -4
-8 -8 -7 -7 -7 -6 -6 -7 -7 -7 -7 -7 -7 -7 -6 -7 -7 -7 -7 -8 -8 -8 -8 -8 -8 -7 -7 -7 -7 -7 -7 -7 -6 -7 -7 -7 -6 -6 -5 -4 -3 -4 -4 -4 -4
-9 -9 -9 -8 -8 -7 -7 -7 -7 -7 -7 -8 -7 -7 -7 -8 -8 -7 -7 -7 -8 -8 -8 -8 -8 -8 -7 -7 -8 -7 -8 -6 -6 -7 -6 -6 -7 -5 -5 -4 -4 -4 -5 -5 -4
-11 -11 -10 -10 -10 -9 -8 -7 -7 -7 -7 -7 -7 -7 -7 -7 -7 -7 -6 -7 -8 -8 -7 -8 -8 -8 -8 -7 -8 -9 -9 -8 -7 -7 -7 -5 -6 -6 -6 -6 -4 -3 -5 -5 -5
-12 -12 -12 -12 -11 -11 -10 -10 -9 -7 -8 -7 -7 -7 -7 -8 -7 -7 -6 -6 -7 -7 -7 -8 -7 -7 -8 -8 -8 -9 -9 -8 -7 -7 -6 -6 -6 -7 -6 -6 -4 -4 -4 -5 -5
-13 -13 -13 -13 -12 -12 -12 -12 -11 -10 -7 -8 -7 -7 -7 -8 -7 -7 -8 -8 -7 -7 -7 -7 -7 -8 -8 -8 -8 -7 -8 -8 -7 -6 -7 -7 -6 -6 -5 -5 -4 -5 -4 -5 -5
-13 -13 -13 -13 -13 -13 -13 -13 -13 -12 -8 -9 -9 -7 -7 -8 -7 -7 -8 -8 -7 -7 -7 -7 -7 -8 -8 -8 -8 -7 -7 -7 -6 -7 -6 -7 -6 -6 -5 -5 -5 -5 -5 -5 -5
-13 -13 -14 -14 -14 -13 -13 -13 -13 -13 -11 -11 -10 -9 -9 -8 -8 -8 -8 -8 -7 -7 -7 -6 -6 -8 -7 -7 -8 -7 -7 -8 -8 -8 -6 -8 -7 -6 -6 -4 -5 -5 -6 -5 -5
-14 -14 -14 -14 -14 -14 -14 -14 -13 -14 -13 -12 -13 -12 -11 -9 -9 -9 -8 -9 -9 -8 -8 -7 -7 -8 -7 -8 -8 -8 -8 -8 -8 -9 -8 -6 -6 -6 -6 -6 -6 -5 -6 -6 -4
-15 -14 -14 -14 -14 -14 -15 -15 -14 -14 -14 -14 -14 -14 -14 -11 -10 -9 -9 -8 -8 -8 -7 -7 -7 -7 -7 -8 -8 -8 -7 -8 -8 -8 -8 -6 -6 -6 -6 -6 -6 -4 -5 -5 -5
-15 -15 -14 -15 -15 -15 -15 -15 -14 -14 -14 -15 -15 -14 -13 -13 -12 -10 -10 -9 -9 -8 -8 -7 -7 -7 -7 -7 -8 -7 -8 -8 -8 -7 -6 -6 -6 -6 -6 -6 -6 -6 -5 -4 -4
-15 -15 -15 -15 -15 -15 -15 -15 -15 -15 -15 -15 -14 -15 -14 -15 -14 -14 -12 -11 -9 -9 -9 -8 -7 -7 -7 -7 -7 -8 -9 -8 -8 -6 -7 -7 -6 -7 -6 -6 -6 -5 -4 -4 -3
-16 -15 -15 -15 -15 -15 -15 -15 -15 -15 -15 -15 -15 -15 -15 -14 -15 -14 -14 -13 -12 -11 -9 -9 -8 -7 -8 -8 -8 -7 -8 -8 -8 -7 -7 -7 -7 -7 -6 -7 -4 -4 -5 -5 -4
-16 -16 -15 -16 -15 -15 -15 -15 -15 -15 -16 -16 -15 -15 -15 -15 -14 -15 -14 -14 -14 -13 -12 -10 -10 -8 -8 -8 -8 -8 -8 -8 -8 -7 -7 -7 -7 -6 -7 -7 -6 -5 -5 -5 -4
-16 -15 -15 -16 -15 -15 -15 -15 -16 -16 -17 -17 -17 -16 -16 -16 -14 -14 -15 -15 -14 -13 -13 -11 -10 -9 -8 -8 -8 -9 -8 -8 -8 -7 -7 -7 -7 -7 -6 -6 -6 -7 -4 -4 -5
-16 -16 -15 -15 -16 -16 -16 -16 -16 -17 -19 -20 -19 -19 -18 -17 -16 -14 -15 -15 -14 -14 -13 -12 -9 -8 -9 -8 -8 -9 -8 -8 -8 -7 -7 -7 -6 -7 -6 -6 -6 -7 -4 -5 -6
-16 -16 -16 -17 -17 -17 -17 -17 -17 -19 -20 -22 -20 -20 -19 -18 -17 -15 -15 -15 -15 -14 -13 -12 -10 -9 -8 -9 -8 -9 -9 -8 -8 -7 -6 -6 -6 -6 -6 -7 -7 -6 -5 -5 -6
-17 -17 -18 -18 -17 -18 -18 -18 -18 -20 -21 -22 -20 -21 -20 -19 -18 -17 -15 -16 -15 -14 -13 -12 -11 -9 -8 -8 -8 -9 -9 -8 -8 -7 -7 -6 -7 -6 -7 -7 -6 -6 -5 -6 -6
-17 -17 -18 -19 -18 -19 -19 -20 -20 -21 -22 -21 -21 -21 -22 -20 -19 -18 -16 -16 -16 -14 -14 -12 -11 -10 -8 -8 -8 -8 -8 -8 -8 -7 -7 -6 -7 -7 -7 -7 -7 -7 -6 -6 -6
-17 -17 -18 -18 -19 -19 -20 -20 -21 -21 -21 -22 -21 -21 -21 -22 -21 -18 -17 -16 -16 -15 -13 -12 -10 -9 -8 -8 -8 -8 -8 -8 -8 -7 -7 -6 -7 -8 -8 -8 -7 -7 -7 -6 -6
Height
5859 5860 5860 5860 5861 5861 5862 5863 5865 5866 5868 5870 5872 5875 5878 5880 5882 5885 5888 5890 5892 5893 5896 5897 5898 5899 5902 5899 5898 5899 5897 5896 5895 5895 5896 5896 5901 5906 5907 5908 5908 5909 5908 5910 5912
5856 5856 5856 5857 5857 5858 5859 5860 5861 5862 5864 5866 5869 5872 5876 5878 5880 5882 5886 5887 5891 5893 5895 5897 5900 5901 5900 5900 5899 5903 5903 5899 5894 5895 5899 5900 5902 5904 5906 5908 5910 5909 5909 5910 5913
5852 5852 5852 5852 5853 5854 5855 5856 5857 5859 5860 5862 5865 5868 5872 5875 5878 5880 5883 5886 5889 5891 5894 5896 5899 5898 5899 5901 5901 5904 5904 5899 5895 5897 5902 5900 5902 5903 5906 5907 5908 5907 5908 5911 5913
5848 5848 5848 5848 5849 5850 5851 5852 5853 5855 5857 5859 5861 5863 5867 5870 5875 5876 5880 5883 5886 5889 5891 5893 5896 5896 5895 5898 5903 5906 5903 5901 5900 5904 5902 5904 5903 5903 5903 5906 5907 5907 5907 5910 5912
5842 5843 5843 5843 5844 5845 5846 5847 5848 5850 5852 5854 5856 5858 5861 5865 5871 5875 5878 5881 5884 5886 5889 5891 5893 5893 5894 5895 5898 5905 5904 5904 5906 5908 5906 5905 5906 5904 5905 5905 5906 5907 5907 5909 5911
5834 5835 5836 5837 5838 5839 5840 5842 5843 5845 5846 5849 5851 5853 5856 5861 5866 5869 5874 5878 5880 5883 5886 5888 5890 5892 5892 5893 5896 5901 5903 5902 5908 5907 5905 5905 5907 5908 5908 5908 5906 5906 5906 5908 5910
5826 5826 5827 5828 5830 5832 5834 5835 5837 5839 5840 5843 5844 5846 5851 5862 5857 5860 5870 5873 5876 5879 5882 5884 5885 5891 5892 5893 5894 5900 5904 5904 5906 5908 5907 5908 5909 5908 5908 5907 5907 5906 5907 5908 5909
5817 5817 5818 5818 5820 5822 5825 5827 5829 5832 5833 5836 5838 5839 5847 5854 5851 5856 5864 5869 5872 5875 5877 5880 5886 5889 5891 5892 5896 5897 5901 5902 5903 5904 5907 5910 5910 5908 5908 5907 5908 5905 5906 5908 5909
5807 5807 5807 5808 5809 5811 5813 5817 5820 5823 5825 5828 5830 5834 5844 5845 5846 5852 5859 5863 5866 5869 5873 5876 5880 5884 5888 5891 5895 5894 5895 5898 5903 5904 5904 5907 5910 5908 5909 5909 5909 5907 5906 5905 5908
5799 5798 5798 5797 5798 5799 5802 5804 5808 5812 5817 5820 5822 5829 5837 5839 5839 5843 5848 5856 5859 5864 5867 5871 5875 5878 5883 5888 5893 5888 5889 5893 5897 5902 5899 5898 5908 5908 5908 5908 5906 5908 5906 5905 5906
5791 5790 5789 5788 5788 5789 5790 5793 5797 5802 5806 5809 5813 5818 5827 5828 5831 5836 5842 5847 5853 5855 5859 5867 5868 5871 5880 5886 5888 5886 5887 5888 5895 5898 5896 5894 5899 5906 5907 5906 5908 5906 5905 5903 5905
5783 5783 5783 5781 5781 5780 5781 5782 5783 5787 5795 5797 5802 5808 5818 5819 5825 5830 5836 5840 5844 5848 5856 5859 5857 5872 5877 5880 5883 5883 5884 5889 5890 5893 5895 5894 5897 5898 5905 5907 5905 5903 5903 5901 5904
5776 5775 5775 5775 5774 5774 5774 5776 5773 5773 5779 5789 5790 5797 5809 5807 5817 5824 5829 5833 5837 5841 5847 5849 5861 5868 5871 5875 5878 5879 5883 5888 5889 5888 5891 5892 5892 5895 5904 5906 5904 5901 5902 5902 5903
5767 5767 5768 5766 5768 5766 5768 5768 5766 5765 5768 5779 5780 5787 5795 5801 5802 5816 5820 5825 5827 5832 5841 5843 5855 5857 5863 5867 5873 5876 5881 5885 5888 5885 5887 5890 5890 5892 5899 5901 5903 5902 5900 5903 5904
5757 5758 5758 5758 5759 5760 5760 5760 5760 5760 5760 5771 5769 5773 5782 5787 5799 5807 5816 5814 5820 5826 5832 5838 5846 5850 5854 5862 5867 5873 5877 5881 5886 5887 5888 5892 5895 5895 5895 5898 5904 5904 5901 5901 5905
5748 5749 5748 5749 5750 5750 5750 5751 5752 5755 5757 5763 5763 5763 5767 5773 5784 5797 5800 5803 5813 5817 5821 5829 5838 5842 5851 5858 5862 5869 5876 5879 5883 5885 5884 5890 5896 5896 5890 5895 5899 5903 5900 5899 5903
5740 5740 5740 5740 5742 5742 5742 5744 5746 5748 5748 5755 5748 5752 5757 5763 5771 5783 5788 5793 5798 5804 5810 5819 5827 5836 5843 5848 5857 5863 5869 5874 5877 5880 5882 5891 5893 5889 5891 5892 5893 5901 5901 5900 5897
5731 5732 5732 5733 5733 5735 5736 5737 5739 5740 5741 5740 5741 5748 5751 5757 5762 5773 5777 5783 5791 5799 5807 5812 5818 5828 5835 5840 5848 5854 5862 5867 5871 5876 5883 5889 5887 5886 5886 5889 5887 5888 5892 5901 5899
5723 5724 5724 5725 5725 5727 5728 5729 5730 5731 5733 5730 5741 5741 5746 5752 5756 5759 5766 5775 5783 5791 5796 5802 5809 5823 5829 5838 5844 5849 5852 5864 5870 5873 5878 5881 5880 5886 5888 5890 5892 5887 5892 5898 5896
5715 5715 5716 5717 5717 5718 5719 5720 5720 5720 5721 5721 5730 5736 5736 5740 5750 5753 5757 5767 5773 5781 5788 5796 5802 5811 5822 5830 5837 5841 5853 5857 5860 5865 5868 5874 5877 5880 5885 5879 5885 5883 5885 5888 5894
5707 5706 5708 5707 5708 5710 5710 5709 5710 5709 5709 5709 5715 5723 5726 5729 5736 5738 5746 5759 5758 5766 5772 5783 5791 5803 5811 5812 5825 5835 5839 5846 5855 5860 5862 5867 5870 5877 5879 5883 5881 5877 5879 5883 5890
5700 5698 5698 5700 5700 5699 5698 5698 5698 5696 5692 5692 5696 5704 5712 5717 5721 5731 5738 5735 5742 5754 5762 5766 5774 5786 5798 5810 5816 5830 5834 5842 5845 5852 5857 5862 5867 5869 5873 5877 5877 5876 5878 5879 5886
5692 5691 5690 5690 5689 5687 5686 5684 5684 5682 5678 5675 5680 5686 5694 5703 5711 5724 5725 5727 5727 5737 5751 5758 5767 5778 5791 5803 5809 5813 5826 5834 5841 5847 5849 5857 5863 5866 5865 5868 5872 5874 5875 5873 5882
5687 5684 5682 5681 5678 5676 5674 5672 5670 5668 5667 5667 5668 5672 5681 5691 5701 5714 5716 5717 5715 5724 5733 5744 5756 5765 5779 5794 5807 5812 5818 5827 5834 5837 5845 5849 5857 5862 5861 5861 5865 5868 5873 5873 5880
5680 5676 5673 5670 5666 5664 5662 5660 5659 5658 5659 5658 5660 5663 5671 5677 5686 5697 5694 5696 5709 5710 5723 5732 5745 5757 5776 5787 5792 5800 5806 5820 5825 5832 5838 5848 5852 5857 5858 5859 5861 5865 5867 5868 5876
5671 5668 5665 5662 5657 5654 5653 5651 5649 5651 5651 5651 5652 5649 5653 5662 5663 5668 5680 5691 5699 5709 5713 5719 5736 5745 5767 5778 5784 5790 5797 5804 5819 5825 5833 5842 5844 5847 5848 5851 5851 5852 5857 5863 5872
5663 5658 5655 5652 5647 5643 5642 5641 5641 5641 5644 5645 5645 5647 5649 5647 5652 5663 5676 5684 5696 5703 5714 5721 5734 5745 5765 5774 5777 5784 5796 5803 5810 5822 5829 5836 5840 5841 5840 5848 5848 5846 5848 5858 5866
Wind_Speed
13 14 14 13 13 14 15 16 17 20 20 22 24 23 20 19 18 15 11 10 9 13 13 9 8 8 7 6 10 14 27 14 13 14 3 5 4 3 1 2 3 4 5 5 4
14 13 15 16 15 15 16 16 18 21 21 22 25 25 24 22 19 19 14 14 12 14 14 10 7 9 10 16 12 10 22 10 13 15 8 1 5 3 1 2 3 2 2 5 9
16 17 17 15 17 18 17 18 19 21 23 22 24 27 27 24 22 23 19 17 14 15 17 13 10 11 17 15 12 5 20 12 15 6 5 6 10 3 4 5 2 1 1 2 5
21 20 19 20 19 18 21 20 21 22 25 25 24 27 29 28 28 27 23 20 16 15 17 15 15 15 13 6 6 7 9 15 13 4 3 11 9 8 11 7 8 5 2 3 4
28 27 25 24 22 22 21 23 23 23 25 28 27 28 30 31 28 27 23 20 18 16 20 17 16 16 14 8 18 12 7 5 11 7 3 4 4 3 6 5 5 4 4 3 3
34 34 33 31 29 27 24 25 25 27 26 28 31 31 30 28 31 30 27 23 22 19 20 21 20 16 19 15 10 17 14 10 7 5 4 4 5 5 6 5 5 6 5 3 4
35 35 37 37 36 34 31 29 28 28 31 29 31 33 33 21 35 37 26 26 25 22 22 26 24 16 20 20 17 14 19 8 6 4 5 5 7 13 14 11 8 9 7 3 4
33 36 39 40 40 40 39 36 34 31 32 32 34 34 28 29 36 35 30 29 26 24 24 23 23 20 21 17 9 20 13 16 18 10 9 6 6 8 9 12 9 9 8 5 3
28 29 34 39 42 42 43 43 41 39 36 35 36 36 26 33 38 33 30 32 32 30 28 26 23 27 24 16 13 19 19 19 15 7 4 4 7 8 11 8 9 8 8 7 5
24 25 26 28 34 41 44 45 47 45 42 40 39 37 31 33 37 37 37 35 35 31 31 29 26 28 30 23 19 16 17 15 15 15 9 6 5 4 12 9 8 6 8 7 7
24 25 26 26 28 30 36 44 49 49 48 47 46 41 36 40 39 39 37 36 37 39 36 29 32 31 30 27 19 7 19 24 22 17 12 9 7 5 9 14 11 6 6 6 7
25 25 25 25 26 27 26 30 37 48 50 53 52 48 39 42 40 40 36 38 40 42 35 35 38 27 29 31 27 14 21 19 19 21 18 4 5 9 7 7 13 8 7 7 6
29 27 27 25 25 25 26 22 26 32 48 47 57 54 45 49 42 38 38 37 39 40 40 40 28 24 29 31 31 27 17 5 13 9 15 5 2 0 7 9 8 11 7 6 6
31 31 30 28 27 28 25 22 28 30 39 32 46 52 53 50 51 40 39 43 42 42 39 42 32 31 32 34 30 33 19 14 1 10 8 16 5 3 11 9 5 5 8 3 6
30 31 30 30 30 30 29 27 29 32 36 21 26 38 49 55 49 44 38 43 44 41 42 41 39 37 36 36 31 30 21 15 14 27 2 14 19 14 21 12 8 3 7 2 5
25 24 26 27 30 31 32 34 35 34 33 26 24 25 32 47 50 45 48 48 41 45 44 41 39 41 34 30 34 25 23 22 20 26 24 15 18 20 26 29 26 15 5 9 5
24 24 25 26 27 26 25 27 25 24 26 20 17 18 20 32 39 45 52 52 51 49 48 44 43 42 39 36 32 30 26 29 25 25 22 10 10 22 25 25 31 17 11 11 10
24 23 25 26 27 24 25 27 28 25 24 24 28 24 28 19 25 38 47 54 51 48 44 45 45 42 42 42 35 39 30 32 27 20 8 11 19 28 30 22 16 23 24 15 12
25 22 23 24 29 25 26 26 25 28 29 36 28 27 29 25 24 25 36 46 51 49 49 47 46 38 40 39 39 39 38 26 26 24 20 23 27 28 31 31 24 4 17 13 13
24 23 23 26 29 27 28 30 34 33 34 39 35 33 39 38 32 27 24 25 37 42 49 45 46 44 39 39 39 41 35 32 34 34 32 34 30 30 25 14 15 12 12 8 12
23 23 22 21 28 31 31 33 34 38 43 45 45 40 47 48 43 29 26 30 31 43 42 45 47 45 46 47 44 39 44 42 36 39 37 34 34 26 26 14 18 17 13 8 10
23 24 23 18 26 32 32 34 37 39 41 46 48 45 50 56 55 45 33 32 38 32 46 47 53 50 47 46 37 36 42 44 42 42 41 32 27 30 30 19 27 24 21 11 5
15 18 22 23 27 31 32 34 34 36 35 43 42 45 55 51 58 45 48 35 46 41 52 52 55 55 47 49 44 38 39 40 45 38 46 34 30 32 38 32 31 33 27 20 15
20 24 27 27 27 28 28 31 31 30 27 28 42 42 46 57 54 51 53 45 50 52 50 62 60 59 55 47 44 39 34 42 43 46 42 42 32 31 32 26 36 32 29 11 14
26 26 23 27 30 32 28 27 26 22 23 26 24 38 42 46 59 60 64 55 56 60 56 66 63 61 55 50 51 43 36 33 44 43 41 35 23 28 30 33 26 36 31 14 18
28 24 23 25 29 28 26 25 24 19 34 20 17 26 31 40 54 72 70 64 53 61 64 69 66 65 59 56 52 46 43 45 36 43 41 33 29 35 32 16 20 37 32 20 16
28 29 28 29 31 30 24 27 21 23 26 26 29 19 32 37 50 63 69 68 57 59 67 65 65 64 58 57 55 53 45 42 35 28 41 39 32 36 37 25 28 31 26 20 16
Wind_Direction
273 269 265 261 256 249 247 240 228 224 220 217 210 205 210 218 221 225 224 215 189 177 174 187 135 100 113 97 17 21 343 31 40 49 28 27 54 110 40 359 63 54 60 84 94
270 270 265 260 258 255 249 245 235 223 225 223 216 212 210 214 223 226 216 221 196 181 182 188 141 167 107 83 360 330 336 345 66 13 14 213 32 21 27 14 336 347 87 105 121
271 266 262 262 254 252 252 248 241 231 225 228 225 220 219 218 217 226 215 223 206 187 183 180 161 148 136 100 2 339 336 360 44 30 18 75 66 81 83 124 93 213 145 162 167
270 267 266 262 257 253 246 244 244 237 230 230 227 227 225 225 219 218 217 215 215 194 186 192 164 172 136 73 152 89 287 29 345 343 349 285 44 68 83 93 21 32 32 224 213
268 265 263 261 259 254 250 245 240 241 235 233 232 228 225 226 226 219 216 220 221 209 189 191 184 193 148 182 127 148 202 52 297 77 199 232 2 68 89 69 24 27 29 351 248
266 264 263 260 258 256 253 247 245 240 237 235 235 234 229 222 225 227 214 221 220 222 202 198 200 192 172 182 160 176 173 166 119 18 328 193 111 84 85 86 45 31 37 332 298
268 265 261 259 259 254 252 251 246 243 241 236 237 236 235 221 229 228 216 221 222 223 221 207 203 201 184 185 192 175 164 149 263 300 267 28 353 12 21 22 49 38 13 352 271
269 267 264 259 255 254 252 248 247 245 242 241 238 238 234 224 234 224 216 218 228 226 228 224 210 203 201 214 165 154 153 169 187 271 344 17 80 20 1 7 9 31 21 353 303
274 273 268 263 259 253 250 248 247 244 243 242 241 240 230 229 235 241 221 221 225 227 227 226 214 203 203 203 187 164 214 178 211 254 329 347 314 349 338 5 357 10 7 345 333
282 281 275 270 264 257 251 248 246 243 243 242 243 241 233 230 232 233 232 216 223 225 227 226 221 208 204 189 160 189 249 211 207 223 231 142 225 350 345 349 352 358 352 334 326
284 284 285 283 277 268 261 251 247 245 241 241 242 243 235 233 230 231 231 227 221 224 224 225 226 214 202 198 193 215 269 274 232 223 209 171 116 336 325 342 330 339 351 341 318
277 279 283 288 286 279 270 264 256 249 242 239 239 240 233 237 236 237 233 230 226 226 224 220 227 211 203 203 200 191 255 269 224 207 197 147 17 352 310 319 315 331 15 342 320
275 277 278 277 277 278 279 286 270 258 246 238 240 238 231 238 236 233 233 236 233 231 225 225 224 218 211 210 215 210 230 297 234 240 160 150 317 220 333 321 296 317 14 355 296
271 273 275 276 276 279 279 276 282 278 256 254 240 239 234 232 236 229 231 231 231 232 227 229 215 218 212 213 217 218 200 189 356 320 40 339 296 318 323 248 321 308 322 31 265
275 268 271 273 273 279 276 276 278 280 272 277 270 247 238 234 235 231 230 233 230 233 231 224 218 217 214 209 214 215 195 218 261 280 268 298 300 307 305 300 319 290 280 307 185
273 277 277 275 278 279 281 284 281 279 282 278 284 274 246 235 230 225 223 227 227 231 233 229 224 221 220 215 214 205 203 203 220 242 259 241 238 267 284 297 308 255 230 243 185
273 277 277 279 278 276 276 278 279 283 279 277 235 222 255 236 229 220 225 226 226 225 225 225 221 218 215 217 217 197 196 205 211 208 242 220 232 265 266 280 286 258 227 204 200
272 275 278 271 268 263 267 276 279 275 269 245 242 241 244 244 225 216 224 226 225 228 231 231 225 218 215 216 211 200 199 216 211 213 167 194 243 254 270 272 283 297 248 212 189
276 273 265 268 253 259 268 273 278 272 268 265 258 223 225 205 193 197 215 225 228 223 228 231 228 220 222 222 214 202 202 207 218 192 215 254 251 243 260 268 287 151 189 205 184
278 276 261 256 255 266 275 277 283 275 273 276 269 243 218 213 197 191 198 210 222 229 223 225 233 217 218 215 222 213 200 206 209 207 216 234 248 247 262 234 197 180 185 216 210
286 277 277 269 258 264 274 279 274 271 272 269 262 257 225 215 201 188 188 195 214 200 211 219 224 218 210 206 208 212 204 205 214 213 221 230 243 259 248 248 237 217 201 217 226
293 288 282 276 272 272 277 276 271 270 274 266 261 245 224 217 215 208 183 197 197 207 200 210 209 213 215 207 192 210 217 209 212 210 217 222 243 262 260 269 213 204 202 177 311
298 295 290 286 281 278 279 276 274 278 274 253 247 237 218 211 219 217 199 199 198 196 198 203 211 212 204 202 199 199 214 216 215 215 213 221 231 254 269 284 210 211 223 192 251
296 286 284 285 282 279 271 274 276 281 253 251 243 240 226 210 212 215 196 206 199 196 198 202 207 210 198 197 198 206 212 220 217 220 217 217 226 240 259 257 213 208 210 205 244
313 302 296 295 293 287 277 277 277 275 236 247 251 239 232 225 212 211 207 209 203 199 196 200 203 209 197 191 193 195 202 228 225 222 220 217 234 240 266 268 238 213 209 208 237
311 304 297 295 295 281 274 265 266 248 235 222 245 218 222 223 220 214 209 209 210 203 198 202 199 206 193 191 189 192 198 204 237 227 213 217 222 238 250 250 266 277 190 191 228
316 310 301 295 295 280 268 265 252 255 245 233 226 229 221 221 222 218 209 209 211 205 207 206 203 205 194 191 190 194 196 203 210 232 221 211 218 248 265 275 260 244 174 193 207